OBJECT BQ, 60530

Orbit data source: Space-Track

You're viewing an Uncataloged Satellite

Recently launched and/or uncataloged satellites may have evolving metadata. Metadata may include but not limited to: Owner, Maufacturer, Bus, Motor, and Mission.

OBJECT BQ, 60530 is a satellite in SSO that was launched on Fri, 16 Aug 2024 UTC via an FALCON 9 launch vehicle from the Air Force Western Test Range (AFWTR). Unknown objects in Earth's orbit typically refer to objects detected orbiting the Earth but have not yet been identified or cataloged. These objects could be anything from previously untracked satellites, spent rocket stages, debris from satellite collisions, or even natural meteoroids temporarily captured by Earth's gravity.

Loading next visibility...
Identifier
60530, 2024-149BQ
Orbit
SSO
Country
Flag of TBDTBD
Related business
Manufacturer
NANAV/PYRAS
Mission
Operational Civil Imaging
Bus & Motor
CUBESAT 3U, Unknown motor
Mass
5 kg wet, 5 kg dry
Launch date (UTC)
2024-08-16 (2 years ago)
Launch vehicle
FALCON 9
Launch site
Air Force Western Test Range (AFWTR)
Object type
Unknown
Shape & HBR
Box, 0.1 m
Radar Cross Section
0.080 m², Small (<0.1 m²)

Expand to show TLE details & history
Last TLE update: 4 hours ago

TLE from 4 hours ago
0 OBJECT BQ
1 60530U 24149BQ  26132.19642060  .00000867  00000-0  81808-4 0  9996
2 60530  97.6789 207.5385 0001588  95.5822 264.5580 14.96286057 94578
Epoch: 2026-05-12T04:42Z
TLE epoch observation values (Epoch: 2026-05-12T04:42:50.739Z)
Latitude
-0.00011°
Longitude
-93.14716°
Altitude
581.539 km
Speed
7.57 km/s
True Right ascension
13h 50m 09s
True Declination
0° 00' 00"
Sunlit
Object was in full shadow at epoch
Visualization orbit readout
Latitude
Unknown
Longitude
Unknown
Altitude
Unknown
Speed
Unknown
Apparent Right ascension
Unknown
Apparent Declination
Unknown
Sunlit
N/A
Visualization observer readout
Local Sidereal Time
17:29:06
Azimuth
Unknown
Elevation
Unknown
Doppler factor
Unknown
Orbital elements
Apogee altitude
576.497 km
Perigee altitude
574.289 km
Semi-major axis
6,953.53 km
Eccentricity
0.00016
Inclination
97.6789°
RAAN
207.5385°
Arg. of periapsis
95.5822°
True anomaly
264.53989°
Mean anomaly
264.558°
Eccentric anomaly
264.54894°
Mean motion
3.74313 °/min
Orbital period
96.18 mins
BSTAR
0.000081808
Loading maneuver chart data...
Computing Atmospheric mass density...
Loading historical data...
Loading historical data...
Loading historical data...
Loading historical data...
Loading historical data...
Loading historical data...
Loading historical data...

Documentation

Showing up to 5 results
|